Time,TemperatureF,DewpointF,PressureIn,WindDirection,WindDirectionDegrees,WindSpeedMPH,WindSpeedGustMPH,Humidity,HourlyPrecipIn,Conditions,Clouds,dailyrainin,SoftwareType,DateUTC
2013-08-30 00:01:00,78.2,50.5,29.97,West,271,0.0,0.0,38,0.00,,---,0.00,VWS V14.01,2013-08-30 07:01:00,
2013-08-30 00:06:00,78.4,50.0,29.97,West,271,0.0,0.0,37,0.00,,---,0.00,VWS V14.01,2013-08-30 07:06:00,
2013-08-30 00:11:00,78.6,50.9,29.97,West,271,0.0,1.0,38,0.00,,---,0.00,VWS V14.01,2013-08-30 07:11:00,
2013-08-30 00:16:00,78.3,49.2,29.97,West,271,0.0,1.0,36,0.00,,---,0.00,VWS V14.01,2013-08-30 07:16:00,
2013-08-30 00:21:00,78.8,48.9,29.96,West,271,0.0,1.0,35,0.00,,---,0.00,VWS V14.01,2013-08-30 07:21:00,
2013-08-30 00:26:00,79.2,50.0,29.97,West,271,0.0,1.0,36,0.00,,---,0.00,VWS V14.01,2013-08-30 07:26:00,
2013-08-30 00:31:00,79.1,49.9,29.96,West,271,0.0,0.0,36,0.00,,---,0.00,VWS V14.01,2013-08-30 07:31:00,
2013-08-30 00:36:00,79.1,50.6,29.96,West,271,0.0,1.0,37,0.00,,---,0.00,VWS V14.01,2013-08-30 07:36:00,
2013-08-30 00:41:00,79.3,49.3,29.96,West,271,0.0,1.0,35,0.00,,---,0.00,VWS V14.01,2013-08-30 07:41:00,
2013-08-30 00:46:00,79.9,49.8,29.96,West,271,0.0,1.0,35,0.00,,---,0.00,VWS V14.01,2013-08-30 07:46:00,
2013-08-30 00:51:00,80.2,49.3,29.96,West,271,0.0,1.0,34,0.00,,---,0.00,VWS V14.01,2013-08-30 07:51:00,
2013-08-30 00:56:00,80.2,50.1,29.96,West,271,0.0,1.0,35,0.00,,---,0.00,VWS V14.01,2013-08-30 07:56:00,
2013-08-30 01:01:00,80.2,50.1,29.96,West,271,0.0,0.0,35,0.00,,---,0.00,VWS V14.01,2013-08-30 08:01:00,
2013-08-30 01:06:00,80.2,50.1,29.96,West,271,0.0,0.0,35,0.00,,---,0.00,VWS V14.01,2013-08-30 08:06:00,
2013-08-30 01:11:00,80.0,49.9,29.95,West,271,0.0,0.0,35,0.00,,---,0.00,VWS V14.01,2013-08-30 08:11:00,
2013-08-30 01:16:00,79.7,49.7,29.95,West,271,0.0,1.0,35,0.00,,---,0.00,VWS V14.01,2013-08-30 08:16:00,
2013-08-30 01:21:00,79.6,48.8,29.95,West,271,0.0,1.0,34,0.00,,---,0.00,VWS V14.01,2013-08-30 08:21:00,
2013-08-30 01:26:00,79.5,49.5,29.95,West,271,0.0,1.0,35,0.00,,---,0.00,VWS V14.01,2013-08-30 08:26:00,
2013-08-30 01:31:00,79.8,49.7,29.95,West,271,0.0,0.0,35,0.00,,---,0.00,VWS V14.01,2013-08-30 08:31:00,
2013-08-30 01:36:00,79.7,51.2,29.95,West,271,0.0,0.0,37,0.00,,---,0.00,VWS V14.01,2013-08-30 08:36:00,
2013-08-30 01:41:00,79.4,50.2,29.94,West,271,0.0,0.0,36,0.00,,---,0.00,VWS V14.01,2013-08-30 08:41:00,
2013-08-30 01:46:00,79.4,50.9,29.95,West,271,0.0,0.0,37,0.00,,---,0.00,VWS V14.01,2013-08-30 08:46:00,
2013-08-30 01:51:00,79.6,51.1,29.95,West,271,0.0,0.0,37,0.00,,---,0.00,VWS V14.01,2013-08-30 08:51:00,
2013-08-30 01:56:00,79.5,51.0,29.95,SW,221,0.0,1.0,37,0.00,,---,0.00,VWS V14.01,2013-08-30 08:56:00,
2013-08-30 02:01:00,78.9,51.2,29.94,WSW,252,0.0,1.0,38,0.00,,---,0.00,VWS V14.01,2013-08-30 09:01:00,
2013-08-30 02:06:00,78.6,50.2,29.94,WSW,252,0.0,1.0,37,0.00,,---,0.00,VWS V14.01,2013-08-30 09:06:00,
2013-08-30 02:11:00,78.7,49.5,29.94,WSW,252,0.0,1.0,36,0.00,,---,0.00,VWS V14.01,2013-08-30 09:11:00,
2013-08-30 02:16:00,79.1,52.0,29.94,WSW,252,0.0,1.0,39,0.00,,---,0.00,VWS V14.01,2013-08-30 09:16:00,
2013-08-30 02:21:00,79.3,52.2,29.94,WSW,252,0.0,1.0,39,0.00,,---,0.00,VWS V14.01,2013-08-30 09:21:00,
2013-08-30 02:26:00,79.3,52.2,29.94,WSW,252,0.0,1.0,39,0.00,,---,0.00,VWS V14.01,2013-08-30 09:26:00,
2013-08-30 02:31:00,79.3,52.2,29.94,WSW,252,0.0,0.0,39,0.00,,---,0.00,VWS V14.01,2013-08-30 09:31:00,
2013-08-30 02:36:00,79.3,52.2,29.94,WSW,252,0.0,0.0,39,0.00,,---,0.00,VWS V14.01,2013-08-30 09:36:00,
2013-08-30 02:41:00,79.2,52.8,29.94,WSW,252,0.0,0.0,40,0.00,,---,0.00,VWS V14.01,2013-08-30 09:41:00,
2013-08-30 02:46:00,79.2,52.8,29.94,WSW,252,0.0,0.0,40,0.00,,---,0.00,VWS V14.01,2013-08-30 09:46:00,
2013-08-30 02:51:00,79.3,52.9,29.94,WSW,252,0.0,0.0,40,0.00,,---,0.00,VWS V14.01,2013-08-30 09:51:00,
2013-08-30 02:56:00,79.2,52.8,29.94,WSW,252,0.0,0.0,40,0.00,,---,0.00,VWS V14.01,2013-08-30 09:56:00,
2013-08-30 03:01:00,79.1,52.7,29.94,WSW,252,0.0,0.0,40,0.00,,---,0.00,VWS V14.01,2013-08-30 10:01:00,
2013-08-30 03:06:00,78.9,52.5,29.93,WSW,252,0.0,0.0,40,0.00,,---,0.00,VWS V14.01,2013-08-30 10:06:00,
2013-08-30 03:11:00,78.9,52.5,29.93,WSW,252,0.0,0.0,40,0.00,,---,0.00,VWS V14.01,2013-08-30 10:11:00,
2013-08-30 03:16:00,78.9,52.5,29.93,WSW,252,0.0,0.0,40,0.00,,---,0.00,VWS V14.01,2013-08-30 10:16:00,
2013-08-30 03:21:00,78.9,51.9,29.93,WSW,252,0.0,0.0,39,0.00,,---,0.00,VWS V14.01,2013-08-30 10:21:00,
2013-08-30 03:26:00,78.9,52.5,29.93,WSW,252,0.0,0.0,40,0.00,,---,0.00,VWS V14.01,2013-08-30 10:26:00,
2013-08-30 03:31:00,78.8,52.5,29.93,WSW,252,0.0,0.0,40,0.00,,---,0.00,VWS V14.01,2013-08-30 10:31:00,
2013-08-30 03:36:00,78.6,53.0,29.93,WSW,252,0.0,0.0,41,0.00,,---,0.00,VWS V14.01,2013-08-30 10:36:00,
2013-08-30 03:41:00,78.4,52.8,29.93,WSW,252,0.0,0.0,41,0.00,,---,0.00,VWS V14.01,2013-08-30 10:41:00,
2013-08-30 03:46:00,78.3,53.3,29.93,WSW,252,0.0,0.0,42,0.00,,---,0.00,VWS V14.01,2013-08-30 10:46:00,
2013-08-30 03:51:00,78.3,53.3,29.93,WSW,252,0.0,0.0,42,0.00,,---,0.00,VWS V14.01,2013-08-30 10:51:00,
2013-08-30 03:56:00,78.3,54.0,29.93,WSW,252,0.0,0.0,43,0.00,,---,0.00,VWS V14.01,2013-08-30 10:56:00,
2013-08-30 04:01:00,78.4,54.1,29.93,WSW,252,0.0,0.0,43,0.00,,---,0.00,VWS V14.01,2013-08-30 11:01:00,
2013-08-30 04:06:00,78.3,54.6,29.93,WSW,252,0.0,0.0,44,0.00,,---,0.00,VWS V14.01,2013-08-30 11:06:00,
2013-08-30 04:11:00,78.1,54.4,29.93,WSW,252,0.0,0.0,44,0.00,,---,0.00,VWS V14.01,2013-08-30 11:11:00,
2013-08-30 04:16:00,77.8,54.2,29.93,WSW,252,0.0,0.0,44,0.00,,---,0.00,VWS V14.01,2013-08-30 11:16:00,
2013-08-30 04:20:00,77.6,54.6,29.93,WSW,252,0.0,0.0,45,0.00,,---,0.00,VWS V14.01,2013-08-30 11:20:00,
2013-08-30 04:25:00,77.4,57.3,29.93,WSW,252,0.0,0.0,50,0.00,,---,0.00,VWS V14.01,2013-08-30 11:25:00,
2013-08-30 04:30:00,77.5,59.6,29.93,WSW,252,0.0,0.0,54,0.00,,---,0.00,VWS V14.01,2013-08-30 11:30:00,
2013-08-30 04:35:00,78.1,61.6,29.93,WSW,252,0.0,0.0,57,0.00,,---,0.00,VWS V14.01,2013-08-30 11:35:00,
2013-08-30 04:40:00,78.7,64.6,29.93,WSW,252,0.0,0.0,62,0.00,,---,0.00,VWS V14.01,2013-08-30 11:40:00,
2013-08-30 04:45:00,79.7,66.9,29.93,WSW,252,0.0,1.0,65,0.00,,---,0.00,VWS V14.01,2013-08-30 11:45:00,
2013-08-30 04:50:00,80.9,68.0,29.93,WSW,253,0.0,1.0,65,0.00,,---,0.00,VWS V14.01,2013-08-30 11:50:00,
2013-08-30 04:55:00,81.7,68.3,29.93,WSW,255,0.0,1.0,64,0.00,,---,0.00,VWS V14.01,2013-08-30 11:55:00,
2013-08-30 05:00:00,82.0,68.6,29.94,WSW,255,0.0,1.0,64,0.00,,---,0.00,VWS V14.01,2013-08-30 12:00:00,
2013-08-30 05:05:00,82.2,68.4,29.94,WSW,255,0.0,1.0,63,0.00,,---,0.00,VWS V14.01,2013-08-30 12:05:00,
2013-08-30 05:10:00,82.3,68.5,29.94,WSW,255,0.0,1.0,63,0.00,,---,0.00,VWS V14.01,2013-08-30 12:10:00,
2013-08-30 05:15:00,82.3,68.5,29.94,WSW,255,0.0,1.0,63,0.00,,---,0.00,VWS V14.01,2013-08-30 12:15:00,
2013-08-30 05:20:00,82.2,68.4,29.94,WSW,255,0.0,1.0,63,0.00,,---,0.00,VWS V14.01,2013-08-30 12:20:00,
2013-08-30 05:25:00,82.0,68.6,29.94,WSW,255,0.0,1.0,64,0.00,,---,0.00,VWS V14.01,2013-08-30 12:25:00,
2013-08-30 05:30:00,81.6,68.7,29.94,WSW,255,0.0,1.0,65,0.00,,---,0.00,VWS V14.01,2013-08-30 12:30:00,
2013-08-30 05:35:00,81.5,69.1,29.94,North,5,0.0,3.0,66,0.00,,---,0.00,VWS V14.01,2013-08-30 12:35:00,
2013-08-30 05:40:00,81.6,68.7,29.94,North,5,0.0,3.0,65,0.00,,---,0.00,VWS V14.01,2013-08-30 12:40:00,
2013-08-30 05:45:00,82.0,68.6,29.94,North,5,0.0,3.0,64,0.00,,---,0.00,VWS V14.01,2013-08-30 12:45:00,
2013-08-30 05:50:00,82.3,68.5,29.94,North,5,1.0,3.0,63,0.00,,---,0.00,VWS V14.01,2013-08-30 12:50:00,
2013-08-30 05:55:00,82.2,68.4,29.95,NNE,26,0.0,3.0,63,0.00,,---,0.00,VWS V14.01,2013-08-30 12:55:00,
2013-08-30 06:00:00,82.3,68.0,29.95,North,360,0.0,1.0,62,0.00,,---,0.00,VWS V14.01,2013-08-30 13:00:00,
2013-08-30 06:05:00,82.6,67.8,29.95,North,5,0.0,2.0,61,0.00,,---,0.00,VWS V14.01,2013-08-30 13:05:00,
2013-08-30 06:10:00,82.5,67.7,29.95,North,5,0.0,2.0,61,0.00,,---,0.00,VWS V14.01,2013-08-30 13:10:00,
2013-08-30 06:15:00,82.4,67.1,29.95,North,5,0.0,2.0,60,0.00,,---,0.00,VWS V14.01,2013-08-30 13:15:00,
2013-08-30 06:20:00,82.2,66.9,29.95,North,5,0.0,2.0,60,0.00,,---,0.00,VWS V14.01,2013-08-30 13:20:00,
2013-08-30 06:25:00,82.0,67.2,29.96,North,5,0.0,2.0,61,0.00,,---,0.00,VWS V14.01,2013-08-30 13:25:00,
2013-08-30 06:30:00,81.3,64.6,29.96,North,5,0.0,0.0,57,0.00,,---,0.00,VWS V14.01,2013-08-30 13:30:00,
2013-08-30 06:35:00,80.6,63.5,29.96,North,5,0.0,0.0,56,0.00,,---,0.00,VWS V14.01,2013-08-30 13:35:00,
2013-08-30 06:40:00,80.1,64.5,29.96,North,5,0.0,1.0,59,0.00,,---,0.00,VWS V14.01,2013-08-30 13:40:00,
2013-08-30 06:45:00,80.1,65.4,29.96,North,5,0.0,1.0,61,0.00,,---,0.00,VWS V14.01,2013-08-30 13:45:00,
2013-08-30 06:50:00,80.6,65.9,29.97,North,5,0.0,1.0,61,0.00,,---,0.00,VWS V14.01,2013-08-30 13:50:00,
2013-08-30 06:55:00,81.1,66.4,29.97,North,5,0.0,1.0,61,0.00,,---,0.00,VWS V14.01,2013-08-30 13:55:00,
2013-08-30 07:00:00,81.3,67.1,29.97,North,5,0.0,0.0,62,0.00,,---,0.00,VWS V14.01,2013-08-30 14:00:00,
2013-08-30 07:05:00,81.9,66.7,29.97,North,5,0.0,1.0,60,0.00,,---,0.00,VWS V14.01,2013-08-30 14:05:00,
2013-08-30 07:10:00,82.6,66.3,29.97,North,9,0.0,1.0,58,0.00,,---,0.00,VWS V14.01,2013-08-30 14:10:00,
2013-08-30 07:15:00,83.0,66.2,29.97,North,9,0.0,1.0,57,0.00,,---,0.00,VWS V14.01,2013-08-30 14:15:00,
2013-08-30 07:20:00,83.4,66.1,29.97,North,9,0.0,1.0,56,0.00,,---,0.00,VWS V14.01,2013-08-30 14:20:00,
2013-08-30 07:25:00,83.9,66.0,29.98,North,9,0.0,1.0,55,0.00,,---,0.00,VWS V14.01,2013-08-30 14:25:00,
2013-08-30 07:30:00,84.0,65.6,29.98,SSE,151,0.0,4.0,54,0.00,,---,0.00,VWS V14.01,2013-08-30 14:30:00,
2013-08-30 07:35:00,83.5,65.7,29.98,ESE,121,0.0,4.0,55,0.00,,---,0.00,VWS V14.01,2013-08-30 14:35:00,
2013-08-30 07:40:00,83.2,65.4,29.98,SE,135,0.0,4.0,55,0.00,,---,0.00,VWS V14.01,2013-08-30 14:40:00,
2013-08-30 07:45:00,83.1,64.8,29.98,SE,135,0.0,4.0,54,0.00,,---,0.00,VWS V14.01,2013-08-30 14:45:00,
2013-08-30 07:50:00,83.1,65.3,29.99,SE,135,0.0,4.0,55,0.00,,---,0.00,VWS V14.01,2013-08-30 14:50:00,
2013-08-30 07:55:00,83.2,65.9,29.99,SE,135,0.0,4.0,56,0.00,,---,0.00,VWS V14.01,2013-08-30 14:55:00,
2013-08-30 08:00:00,83.3,64.9,29.99,SE,135,0.0,0.0,54,0.00,,---,0.00,VWS V14.01,2013-08-30 15:00:00,
2013-08-30 08:05:00,83.7,65.3,29.99,SE,130,0.0,0.0,54,0.00,,---,0.00,VWS V14.01,2013-08-30 15:05:00,
2013-08-30 08:10:00,84.1,65.1,29.99,SE,130,0.0,1.0,53,0.00,,---,0.00,VWS V14.01,2013-08-30 15:10:00,
2013-08-30 08:15:00,84.2,65.8,29.99,SE,130,0.0,1.0,54,0.00,,---,0.00,VWS V14.01,2013-08-30 15:15:00,
2013-08-30 08:20:00,84.3,65.9,29.99,East,90,0.0,1.0,54,0.00,,---,0.00,VWS V14.01,2013-08-30 15:20:00,
2013-08-30 08:25:00,84.9,65.3,29.99,ESE,107,0.0,1.0,52,0.00,,---,0.00,VWS V14.01,2013-08-30 15:25:00,
2013-08-30 08:30:00,85.3,65.7,30.00,East,96,0.0,1.0,52,0.00,,---,0.00,VWS V14.01,2013-08-30 15:30:00,
2013-08-30 08:35:00,85.9,65.7,30.00,East,96,0.0,1.0,51,0.00,,---,0.00,VWS V14.01,2013-08-30 15:35:00,
2013-08-30 08:40:00,86.5,66.2,30.00,East,96,0.0,1.0,51,0.00,,---,0.00,VWS V14.01,2013-08-30 15:40:00,
2013-08-30 08:45:00,87.2,66.3,30.00,East,84,0.0,2.0,50,0.00,,---,0.00,VWS V14.01,2013-08-30 15:45:00,
2013-08-30 08:50:00,88.0,67.1,30.00,East,84,0.0,2.0,50,0.00,,---,0.00,VWS V14.01,2013-08-30 15:50:00,
2013-08-30 08:55:00,88.8,67.2,30.00,East,84,0.0,2.0,49,0.00,,---,0.00,VWS V14.01,2013-08-30 15:55:00,
2013-08-30 09:00:00,88.9,66.1,30.00,ESE,102,0.0,2.0,47,0.00,,---,0.00,VWS V14.01,2013-08-30 16:00:00,
2013-08-30 09:05:00,88.3,64.9,30.00,SE,138,0.0,4.0,46,0.00,,---,0.00,VWS V14.01,2013-08-30 16:05:00,
2013-08-30 09:10:00,88.3,65.5,30.00,ENE,74,0.0,4.0,47,0.00,,---,0.00,VWS V14.01,2013-08-30 16:10:00,
2013-08-30 09:15:00,88.6,64.6,30.00,NNE,28,0.0,4.0,45,0.00,,---,0.00,VWS V14.01,2013-08-30 16:15:00,
2013-08-30 09:20:00,88.6,65.2,30.00,SE,124,0.0,5.0,46,0.00,,---,0.00,VWS V14.01,2013-08-30 16:20:00,
2013-08-30 09:25:00,88.6,65.2,30.00,SE,140,0.0,5.0,46,0.00,,---,0.00,VWS V14.01,2013-08-30 16:25:00,
2013-08-30 09:30:00,88.8,65.4,30.00,SSE,150,0.0,2.0,46,0.00,,---,0.00,VWS V14.01,2013-08-30 16:30:00,
2013-08-30 09:35:00,89.2,65.1,30.00,WNW,282,0.0,4.0,45,0.00,,---,0.00,VWS V14.01,2013-08-30 16:35:00,
2013-08-30 09:40:00,89.4,65.3,30.00,SE,139,1.0,6.0,45,0.00,,---,0.00,VWS V14.01,2013-08-30 16:40:00,
2013-08-30 09:45:00,89.5,66.0,30.01,WNW,290,0.0,6.0,46,0.00,,---,0.00,VWS V14.01,2013-08-30 16:45:00,
2013-08-30 09:50:00,89.9,65.7,30.00,WNW,288,5.0,6.0,45,0.00,,---,0.00,VWS V14.01,2013-08-30 16:50:00,
2013-08-30 09:55:00,89.9,65.1,30.00,West,269,0.0,6.0,44,0.00,,---,0.00,VWS V14.01,2013-08-30 16:55:00,
2013-08-30 10:00:00,90.0,65.2,30.00,WSW,255,0.0,7.0,44,0.00,,---,0.00,VWS V14.01,2013-08-30 17:00:00,
2013-08-30 10:05:00,90.0,65.2,30.00,WNW,302,1.0,7.0,44,0.00,,---,0.00,VWS V14.01,2013-08-30 17:05:00,
2013-08-30 10:10:00,90.4,64.9,30.00,WNW,290,3.0,7.0,43,0.00,,---,0.00,VWS V14.01,2013-08-30 17:10:00,
2013-08-30 10:15:00,90.6,65.1,30.00,ESE,121,0.0,7.0,43,0.00,,---,0.00,VWS V14.01,2013-08-30 17:15:00,
2013-08-30 10:20:00,90.7,65.2,30.00,SSE,162,4.0,8.0,43,0.00,,---,0.00,VWS V14.01,2013-08-30 17:20:00,
2013-08-30 10:25:00,90.7,64.5,30.00,South,171,4.0,8.0,42,0.00,,---,0.00,VWS V14.01,2013-08-30 17:25:00,
2013-08-30 10:30:00,90.1,64.6,30.00,SSE,153,2.0,7.0,43,0.00,,---,0.00,VWS V14.01,2013-08-30 17:30:00,
2013-08-30 10:35:00,90.4,64.9,30.00,South,173,1.0,7.0,43,0.00,,---,0.00,VWS V14.01,2013-08-30 17:35:00,
2013-08-30 10:40:00,90.8,64.6,30.00,South,187,0.0,7.0,42,0.00,,---,0.00,VWS V14.01,2013-08-30 17:40:00,
2013-08-30 10:45:00,91.2,64.9,30.00,SW,217,1.0,7.0,42,0.00,,---,0.00,VWS V14.01,2013-08-30 17:45:00,
2013-08-30 10:50:00,91.2,64.2,30.00,South,186,0.0,8.0,41,0.00,,---,0.00,VWS V14.01,2013-08-30 17:50:00,
2013-08-30 10:55:00,91.3,65.0,30.00,SE,140,0.0,8.0,42,0.00,,---,0.00,VWS V14.01,2013-08-30 17:55:00,
2013-08-30 11:00:00,92.3,65.9,30.00,SSE,150,1.0,4.0,42,0.00,,---,0.00,VWS V14.01,2013-08-30 18:00:00,
2013-08-30 11:05:00,92.9,65.8,30.00,SE,128,2.0,7.0,41,0.00,,---,0.00,VWS V14.01,2013-08-30 18:05:00,
2013-08-30 11:10:00,92.5,65.4,30.00,SSW,202,0.0,9.0,41,0.00,,---,0.00,VWS V14.01,2013-08-30 18:10:00,
2013-08-30 11:15:00,92.5,66.8,30.00,SW,222,0.0,9.0,43,0.00,,---,0.00,VWS V14.01,2013-08-30 18:15:00,
2013-08-30 11:20:00,92.3,66.6,30.00,SW,218,0.0,9.0,43,0.00,,---,0.00,VWS V14.01,2013-08-30 18:20:00,
2013-08-30 11:25:00,92.6,67.5,30.00,South,172,0.0,9.0,44,0.00,,---,0.00,VWS V14.01,2013-08-30 18:25:00,
2013-08-30 11:30:00,93.3,67.5,30.00,SE,143,0.0,3.0,43,0.00,,---,0.00,VWS V14.01,2013-08-30 18:30:00,
2013-08-30 11:35:00,93.6,68.4,30.00,SSW,211,3.0,8.0,44,0.00,,---,0.00,VWS V14.01,2013-08-30 18:35:00,
2013-08-30 11:40:00,93.3,67.5,30.00,SE,125,4.0,8.0,43,0.00,,---,0.00,VWS V14.01,2013-08-30 18:40:00,
2013-08-30 11:45:00,93.1,68.0,30.00,South,189,0.0,11.0,44,0.00,,---,0.00,VWS V14.01,2013-08-30 18:45:00,
2013-08-30 11:50:00,93.0,67.9,30.00,WNW,282,3.0,11.0,44,0.00,,---,0.00,VWS V14.01,2013-08-30 18:50:00,
2013-08-30 11:55:00,93.3,68.2,30.00,NW,315,1.0,11.0,44,0.00,,---,0.00,VWS V14.01,2013-08-30 18:55:00,
2013-08-30 12:00:00,93.4,67.6,30.00,South,180,4.0,7.0,43,0.00,,---,0.00,VWS V14.01,2013-08-30 19:00:00,
2013-08-30 12:05:00,93.7,67.8,29.99,South,182,1.0,11.0,43,0.00,,---,0.00,VWS V14.01,2013-08-30 19:05:00,
2013-08-30 12:10:00,93.6,67.8,29.99,South,190,4.0,11.0,43,0.00,,---,0.00,VWS V14.01,2013-08-30 19:10:00,
2013-08-30 12:15:00,94.5,68.6,29.99,SSW,205,3.0,11.0,43,0.00,,---,0.00,VWS V14.01,2013-08-30 19:15:00,
2013-08-30 12:20:00,94.4,68.5,29.99,ENE,71,2.0,12.0,43,0.00,,---,0.00,VWS V14.01,2013-08-30 19:20:00,
2013-08-30 12:25:00,94.2,69.0,29.99,ESE,107,1.0,12.0,44,0.00,,---,0.00,VWS V14.01,2013-08-30 19:25:00,
2013-08-30 12:30:00,93.8,68.6,29.99,SSW,212,2.0,9.0,44,0.00,,---,0.00,VWS V14.01,2013-08-30 19:30:00,
2013-08-30 12:35:00,94.0,68.1,29.99,ESE,102,0.0,9.0,43,0.00,,---,0.00,VWS V14.01,2013-08-30 19:35:00,
2013-08-30 12:40:00,94.7,68.1,29.99,ESE,109,7.0,9.0,42,0.00,,---,0.00,VWS V14.01,2013-08-30 19:40:00,
2013-08-30 12:45:00,95.1,68.4,29.99,East,94,0.0,12.0,42,0.00,,---,0.00,VWS V14.01,2013-08-30 19:45:00,
2013-08-30 12:50:00,94.8,68.2,29.99,ESE,102,7.0,12.0,42,0.00,,---,0.00,VWS V14.01,2013-08-30 19:50:00,
2013-08-30 12:55:00,94.1,68.2,29.99,WNW,296,0.0,12.0,43,0.00,,---,0.00,VWS V14.01,2013-08-30 19:55:00,
2013-08-30 13:00:00,94.4,69.1,29.98,WSW,238,0.0,3.0,44,0.00,,---,0.00,VWS V14.01,2013-08-30 20:00:00,
2013-08-30 13:05:00,94.4,68.5,29.98,SW,228,1.0,9.0,43,0.00,,---,0.00,VWS V14.01,2013-08-30 20:05:00,
2013-08-30 13:10:00,93.4,68.9,29.98,WSW,238,4.0,12.0,45,0.00,,---,0.00,VWS V14.01,2013-08-30 20:10:00,
2013-08-30 13:15:00,93.0,69.2,29.98,South,182,10.0,12.0,46,0.00,,---,0.00,VWS V14.01,2013-08-30 20:15:00,
2013-08-30 13:20:00,92.3,68.5,29.98,SSW,196,2.0,12.0,46,0.00,,---,0.00,VWS V14.01,2013-08-30 20:20:00,
2013-08-30 13:25:00,92.4,68.6,29.98,SSW,208,0.0,12.0,46,0.00,,---,0.00,VWS V14.01,2013-08-30 20:25:00,
2013-08-30 13:30:00,92.8,68.4,29.98,West,280,2.0,12.0,45,0.00,,---,0.00,VWS V14.01,2013-08-30 20:30:00,
2013-08-30 13:35:00,92.6,68.8,29.98,WNW,294,5.0,12.0,46,0.00,,---,0.00,VWS V14.01,2013-08-30 20:35:00,
2013-08-30 13:40:00,92.8,69.6,29.98,ENE,75,0.0,12.0,47,0.00,,---,0.00,VWS V14.01,2013-08-30 20:40:00,
2013-08-30 13:45:00,93.4,68.9,29.98,SW,236,0.0,12.0,45,0.00,,---,0.00,VWS V14.01,2013-08-30 20:45:00,
2013-08-30 13:50:00,94.0,69.4,29.98,SE,140,0.0,12.0,45,0.00,,---,0.00,VWS V14.01,2013-08-30 20:50:00,
2013-08-30 13:55:00,94.4,69.8,29.98,SE,132,2.0,12.0,45,0.00,,---,0.00,VWS V14.01,2013-08-30 20:55:00,
2013-08-30 14:00:00,93.6,69.7,29.98,West,271,0.0,8.0,46,0.00,,---,0.00,VWS V14.01,2013-08-30 21:00:00,
2013-08-30 14:05:00,93.4,70.2,29.97,WNW,298,5.0,9.0,47,0.00,,---,0.00,VWS V14.01,2013-08-30 21:05:00,
2013-08-30 14:10:00,94.2,70.3,29.97,WSW,247,3.0,9.0,46,0.00,,---,0.00,VWS V14.01,2013-08-30 21:10:00,
2013-08-30 14:15:00,93.7,69.8,29.98,SSE,155,5.0,12.0,46,0.00,,---,0.00,VWS V14.01,2013-08-30 21:15:00,
2013-08-30 14:20:00,92.8,70.2,29.97,NW,320,2.0,12.0,48,0.00,,---,0.00,VWS V14.01,2013-08-30 21:20:00,
2013-08-30 14:25:00,92.6,70.1,29.97,SW,215,6.0,12.0,48,0.00,,---,0.00,VWS V14.01,2013-08-30 21:25:00,
2013-08-30 14:30:00,92.0,70.1,29.97,SW,221,3.0,6.0,49,0.00,,---,0.00,VWS V14.01,2013-08-30 21:30:00,
2013-08-30 14:35:00,92.0,70.1,29.97,SW,234,1.0,10.0,49,0.00,,---,0.00,VWS V14.01,2013-08-30 21:35:00,
2013-08-30 14:40:00,92.1,70.2,29.97,West,281,2.0,10.0,49,0.00,,---,0.00,VWS V14.01,2013-08-30 21:40:00,
2013-08-30 14:45:00,92.4,69.9,29.97,SSE,156,8.0,10.0,48,0.00,,---,0.00,VWS V14.01,2013-08-30 21:45:00,
2013-08-30 14:50:00,92.0,69.5,29.96,SSE,157,5.0,12.0,48,0.00,,---,0.00,VWS V14.01,2013-08-30 21:50:00,
2013-08-30 14:55:00,92.5,70.0,29.96,WNW,288,0.0,12.0,48,0.00,,---,0.00,VWS V14.01,2013-08-30 21:55:00,
2013-08-30 15:00:00,92.8,70.2,29.96,SSW,207,4.0,9.0,48,0.00,,---,0.00,VWS V14.01,2013-08-30 22:00:00,
2013-08-30 15:05:00,92.7,69.5,29.96,SE,145,0.0,9.0,47,0.00,,---,0.00,VWS V14.01,2013-08-30 22:05:00,
2013-08-30 15:10:00,93.4,70.2,29.95,SW,236,0.0,9.0,47,0.00,,---,0.00,VWS V14.01,2013-08-30 22:10:00,
2013-08-30 15:15:00,93.7,69.8,29.95,West,275,2.0,10.0,46,0.00,,---,0.00,VWS V14.01,2013-08-30 22:15:00,
2013-08-30 15:20:00,91.8,69.3,29.95,South,180,3.0,10.0,48,0.00,,---,0.00,VWS V14.01,2013-08-30 22:20:00,
2013-08-30 15:25:00,90.8,69.6,29.95,SE,134,0.0,10.0,50,0.00,,---,0.00,VWS V14.01,2013-08-30 22:25:00,
2013-08-30 15:30:00,90.8,69.6,29.95,SSE,148,2.0,6.0,50,0.00,,---,0.00,VWS V14.01,2013-08-30 22:30:00,
2013-08-30 15:35:00,91.8,69.9,29.95,SE,144,0.0,9.0,49,0.00,,---,0.00,VWS V14.01,2013-08-30 22:35:00,
2013-08-30 15:40:00,91.7,69.8,29.95,West,268,1.0,10.0,49,0.00,,---,0.00,VWS V14.01,2013-08-30 22:40:00,
2013-08-30 15:45:00,91.1,69.9,29.95,SW,214,0.0,12.0,50,0.00,,---,0.00,VWS V14.01,2013-08-30 22:45:00,
2013-08-30 15:50:00,90.3,70.3,29.95,West,270,0.0,12.0,52,0.00,,---,0.00,VWS V14.01,2013-08-30 22:50:00,
2013-08-30 15:55:00,90.3,69.7,29.95,East,90,0.0,12.0,51,0.00,,---,0.00,VWS V14.01,2013-08-30 22:55:00,
2013-08-30 16:00:00,90.1,69.6,29.95,WSW,240,4.0,6.0,51,0.00,,---,0.00,VWS V14.01,2013-08-30 23:00:00,
2013-08-30 16:05:00,90.3,69.7,29.95,ESE,111,1.0,6.0,51,0.00,,---,0.00,VWS V14.01,2013-08-30 23:05:00,
2013-08-30 16:10:00,90.3,69.7,29.95,West,281,1.0,9.0,51,0.00,,---,0.00,VWS V14.01,2013-08-30 23:10:00,
2013-08-30 16:15:00,90.3,70.3,29.95,SSE,151,4.0,9.0,52,0.00,,---,0.00,VWS V14.01,2013-08-30 23:15:00,
2013-08-30 16:20:00,90.2,70.8,29.94,WNW,288,0.0,9.0,53,0.00,,---,0.00,VWS V14.01,2013-08-30 23:20:00,
2013-08-30 16:25:00,90.4,70.9,29.95,West,276,0.0,9.0,53,0.00,,---,0.00,VWS V14.01,2013-08-30 23:25:00,
2013-08-30 16:30:00,90.4,70.9,29.94,South,175,0.0,6.0,53,0.00,,---,0.00,VWS V14.01,2013-08-30 23:30:00,
2013-08-30 16:35:00,90.1,70.7,29.94,SE,145,5.0,9.0,53,0.00,,---,0.00,VWS V14.01,2013-08-30 23:35:00,
2013-08-30 16:40:00,89.3,70.5,29.95,SSE,161,0.0,14.0,54,0.00,,---,0.00,VWS V14.01,2013-08-30 23:40:00,
2013-08-30 16:45:00,89.1,70.3,29.95,WSW,240,0.0,14.0,54,0.00,,---,0.00,VWS V14.01,2013-08-30 23:45:00,
2013-08-30 16:50:00,89.3,70.5,29.95,SSW,192,1.0,14.0,54,0.00,,---,0.00,VWS V14.01,2013-08-30 23:50:00,
2013-08-30 16:55:00,89.3,70.5,29.95,SSW,200,0.0,14.0,54,0.00,,---,0.00,VWS V14.01,2013-08-30 23:55:00,
2013-08-30 17:00:00,89.9,71.0,29.95,SW,223,1.0,7.0,54,0.00,,---,0.00,VWS V14.01,2013-08-31 00:00:00,
2013-08-30 17:05:00,89.5,70.7,29.94,SW,221,2.0,7.0,54,0.00,,---,0.00,VWS V14.01,2013-08-31 00:05:00,
2013-08-30 17:10:00,88.8,70.6,29.94,SSW,199,1.0,12.0,55,0.00,,---,0.00,VWS V14.01,2013-08-31 00:10:00,
2013-08-30 17:15:00,88.8,70.6,29.95,SW,223,1.0,12.0,55,0.00,,---,0.00,VWS V14.01,2013-08-31 00:15:00,
2013-08-30 17:20:00,88.6,70.4,29.95,SSE,165,4.0,12.0,55,0.00,,---,0.00,VWS V14.01,2013-08-31 00:20:00,
2013-08-30 17:25:00,88.3,70.6,29.95,ESE,117,0.0,12.0,56,0.00,,---,0.00,VWS V14.01,2013-08-31 00:25:00,
2013-08-30 17:30:00,88.4,70.7,29.95,ESE,114,0.0,7.0,56,0.00,,---,0.00,VWS V14.01,2013-08-31 00:30:00,
2013-08-30 17:35:00,88.4,70.7,29.95,WSW,247,1.0,7.0,56,0.00,,---,0.00,VWS V14.01,2013-08-31 00:35:00,
2013-08-30 17:40:00,88.1,70.4,29.95,West,276,4.0,7.0,56,0.00,,---,0.00,VWS V14.01,2013-08-31 00:40:00,
2013-08-30 17:45:00,87.6,70.5,29.95,SW,216,3.0,11.0,57,0.00,,---,0.00,VWS V14.01,2013-08-31 00:45:00,
2013-08-30 17:50:00,87.3,70.7,29.95,South,174,0.0,11.0,58,0.00,,---,0.00,VWS V14.01,2013-08-31 00:50:00,
2013-08-30 17:55:00,87.3,70.7,29.95,South,180,1.0,11.0,58,0.00,,---,0.00,VWS V14.01,2013-08-31 00:55:00,
2013-08-30 17:59:00,87.4,70.8,29.96,West,269,1.0,3.0,58,0.00,,---,0.00,VWS V14.01,2013-08-31 00:59:00,
2013-08-30 18:04:00,87.7,71.1,29.95,WSW,243,2.0,3.0,58,0.00,,---,0.00,VWS V14.01,2013-08-31 01:04:00,
2013-08-30 18:09:00,87.7,71.1,29.95,WSW,254,1.0,4.0,58,0.00,,---,0.00,VWS V14.01,2013-08-31 01:09:00,
2013-08-30 18:14:00,87.7,71.1,29.95,SE,132,0.0,4.0,58,0.00,,---,0.00,VWS V14.01,2013-08-31 01:14:00,
2013-08-30 18:19:00,87.4,70.8,29.95,SSW,198,0.0,8.0,58,0.00,,---,0.00,VWS V14.01,2013-08-31 01:19:00,
2013-08-30 18:24:00,87.1,70.5,29.95,West,273,0.0,8.0,58,0.00,,---,0.00,VWS V14.01,2013-08-31 01:24:00,
2013-08-30 18:29:00,87.0,70.9,29.95,WSW,239,1.0,3.0,59,0.00,,---,0.00,VWS V14.01,2013-08-31 01:29:00,
2013-08-30 18:34:00,86.9,70.9,29.95,SE,139,4.0,8.0,59,0.00,,---,0.00,VWS V14.01,2013-08-31 01:34:00,
2013-08-30 18:39:00,86.6,70.6,29.95,SE,130,1.0,8.0,59,0.00,,---,0.00,VWS V14.01,2013-08-31 01:39:00,
2013-08-30 18:44:00,86.4,70.9,29.95,SSE,152,0.0,8.0,60,0.00,,---,0.00,VWS V14.01,2013-08-31 01:44:00,
2013-08-30 18:49:00,86.3,70.8,29.95,South,191,0.0,8.0,60,0.00,,---,0.00,VWS V14.01,2013-08-31 01:49:00,
2013-08-30 18:54:00,85.9,70.4,29.95,SW,218,0.0,8.0,60,0.00,,---,0.00,VWS V14.01,2013-08-31 01:54:00,
2013-08-30 18:59:00,85.7,70.7,29.95,SSW,194,0.0,1.0,61,0.00,,---,0.00,VWS V14.01,2013-08-31 01:59:00,
2013-08-30 19:04:00,85.5,70.5,29.95,South,177,0.0,1.0,61,0.00,,---,0.00,VWS V14.01,2013-08-31 02:04:00,
2013-08-30 19:09:00,85.4,70.4,29.95,SW,235,0.0,1.0,61,0.00,,---,0.00,VWS V14.01,2013-08-31 02:09:00,
2013-08-30 19:14:00,85.1,70.6,29.95,WNW,285,0.0,2.0,62,0.00,,---,0.00,VWS V14.01,2013-08-31 02:14:00,
2013-08-30 19:19:00,84.8,70.3,29.95,WNW,285,0.0,2.0,62,0.00,,---,0.00,VWS V14.01,2013-08-31 02:19:00,
2013-08-30 19:24:00,84.6,70.6,29.95,SW,236,0.0,2.0,63,0.00,,---,0.00,VWS V14.01,2013-08-31 02:24:00,
2013-08-30 19:29:00,84.4,70.4,29.95,WSW,252,0.0,2.0,63,0.00,,---,0.00,VWS V14.01,2013-08-31 02:29:00,
2013-08-30 19:34:00,84.1,70.6,29.96,WSW,242,0.0,2.0,64,0.00,,---,0.00,VWS V14.01,2013-08-31 02:34:00,
2013-08-30 19:39:00,83.9,70.4,29.96,WSW,242,0.0,2.0,64,0.00,,---,0.00,VWS V14.01,2013-08-31 02:39:00,
2013-08-30 19:44:00,83.7,70.2,29.96,WSW,242,0.0,2.0,64,0.00,,---,0.00,VWS V14.01,2013-08-31 02:44:00,
2013-08-30 19:49:00,83.6,70.6,29.96,WSW,242,0.0,2.0,65,0.00,,---,0.00,VWS V14.01,2013-08-31 02:49:00,
2013-08-30 19:54:00,83.5,70.5,29.96,WSW,242,0.0,2.0,65,0.00,,---,0.00,VWS V14.01,2013-08-31 02:54:00,
2013-08-30 19:59:00,83.4,70.4,29.96,WSW,242,0.0,0.0,65,0.00,,---,0.00,VWS V14.01,2013-08-31 02:59:00,
2013-08-30 20:04:00,83.3,70.8,29.96,WSW,242,0.0,0.0,66,0.00,,---,0.00,VWS V14.01,2013-08-31 03:04:00,
2013-08-30 20:09:00,83.2,70.7,29.96,WSW,242,0.0,0.0,66,0.00,,---,0.00,VWS V14.01,2013-08-31 03:09:00,
2013-08-30 20:14:00,83.1,70.6,29.97,WSW,242,0.0,0.0,66,0.00,,---,0.00,VWS V14.01,2013-08-31 03:14:00,
2013-08-30 20:19:00,83.0,70.5,29.97,WSW,242,0.0,0.0,66,0.00,,---,0.00,VWS V14.01,2013-08-31 03:19:00,
2013-08-30 20:24:00,82.9,70.8,29.97,WSW,242,0.0,0.0,67,0.00,,---,0.00,VWS V14.01,2013-08-31 03:24:00,
2013-08-30 20:29:00,82.8,70.3,29.97,WSW,242,0.0,0.0,66,0.00,,---,0.00,VWS V14.01,2013-08-31 03:29:00,
2013-08-30 20:34:00,82.8,70.7,29.97,WSW,242,0.0,0.0,67,0.00,,---,0.00,VWS V14.01,2013-08-31 03:34:00,
2013-08-30 20:39:00,82.8,70.3,29.97,WSW,242,0.0,0.0,66,0.00,,---,0.00,VWS V14.01,2013-08-31 03:39:00,
2013-08-30 20:44:00,82.7,70.6,29.98,WSW,242,0.0,0.0,67,0.00,,---,0.00,VWS V14.01,2013-08-31 03:44:00,
2013-08-30 20:49:00,82.7,70.2,29.98,WSW,242,0.0,0.0,66,0.00,,---,0.00,VWS V14.01,2013-08-31 03:49:00,
2013-08-30 20:54:00,82.6,70.1,29.98,WSW,242,0.0,0.0,66,0.00,,---,0.00,VWS V14.01,2013-08-31 03:54:00,
2013-08-30 20:59:00,82.5,70.0,29.98,WSW,242,0.0,0.0,66,0.00,,---,0.00,VWS V14.01,2013-08-31 03:59:00,
2013-08-30 21:01:00,82.5,70.0,29.98,WSW,242,0.0,0.0,66,0.00,,---,0.00,VWS V14.01,2013-08-31 04:01:00,
2013-08-30 21:02:00,82.4,69.9,29.98,WSW,242,0.0,1.0,66,0.00,,---,0.00,VWS V14.01,2013-08-31 04:02:00,
2013-08-30 21:07:00,82.3,69.4,29.98,SW,216,0.0,1.0,65,0.00,,---,0.00,VWS V14.01,2013-08-31 04:07:00,
2013-08-30 21:12:00,82.1,68.7,29.98,SW,216,0.0,1.0,64,0.00,,---,0.00,VWS V14.01,2013-08-31 04:12:00,
2013-08-30 21:17:00,81.9,68.5,29.98,SW,217,0.0,1.0,64,0.00,,---,0.00,VWS V14.01,2013-08-31 04:17:00,
2013-08-30 21:22:00,81.7,68.3,29.98,SW,217,0.0,1.0,64,0.00,,---,0.00,VWS V14.01,2013-08-31 04:22:00,
2013-08-30 21:27:00,81.4,68.5,29.98,SW,217,0.0,1.0,65,0.00,,---,0.00,VWS V14.01,2013-08-31 04:27:00,
2013-08-30 21:32:00,81.1,68.2,29.98,SW,217,0.0,0.0,65,0.00,,---,0.00,VWS V14.01,2013-08-31 04:32:00,
2013-08-30 21:37:00,80.8,68.4,29.99,SW,217,0.0,0.0,66,0.00,,---,0.00,VWS V14.01,2013-08-31 04:37:00,
2013-08-30 21:42:00,80.6,68.2,29.99,SW,217,0.0,0.0,66,0.00,,---,0.00,VWS V14.01,2013-08-31 04:42:00,
2013-08-30 21:47:00,80.4,68.4,29.99,SW,217,0.0,0.0,67,0.00,,---,0.00,VWS V14.01,2013-08-31 04:47:00,
2013-08-30 21:52:00,80.0,68.1,29.99,SW,217,0.0,0.0,67,0.00,,---,0.00,VWS V14.01,2013-08-31 04:52:00,
2013-08-30 21:57:00,79.8,68.3,29.99,SW,217,0.0,0.0,68,0.00,,---,0.00,VWS V14.01,2013-08-31 04:57:00,
2013-08-30 22:02:00,79.5,68.4,29.99,SW,217,0.0,0.0,69,0.00,,---,0.00,VWS V14.01,2013-08-31 05:02:00,
2013-08-30 22:07:00,79.2,68.2,29.99,SW,217,0.0,0.0,69,0.00,,---,0.00,VWS V14.01,2013-08-31 05:07:00,
2013-08-30 22:12:00,79.1,68.5,29.99,SW,217,0.0,0.0,70,0.00,,---,0.00,VWS V14.01,2013-08-31 05:12:00,
2013-08-30 22:17:00,79.0,68.0,29.99,SW,217,0.0,0.0,69,0.00,,---,0.00,VWS V14.01,2013-08-31 05:17:00,
2013-08-30 22:22:00,78.9,68.3,29.99,SW,217,0.0,0.0,70,0.00,,---,0.00,VWS V14.01,2013-08-31 05:22:00,
2013-08-30 22:27:00,78.8,68.2,29.99,SW,217,0.0,0.0,70,0.00,,---,0.00,VWS V14.01,2013-08-31 05:27:00,
2013-08-30 22:32:00,78.7,68.1,29.99,SW,217,0.0,0.0,70,0.00,,---,0.00,VWS V14.01,2013-08-31 05:32:00,
2013-08-30 22:37:00,78.8,68.2,29.99,SW,217,0.0,0.0,70,0.00,,---,0.00,VWS V14.01,2013-08-31 05:37:00,
2013-08-30 22:42:00,78.9,68.3,29.99,SW,217,0.0,0.0,70,0.00,,---,0.00,VWS V14.01,2013-08-31 05:42:00,
2013-08-30 22:47:00,78.9,68.3,29.99,SW,217,0.0,0.0,70,0.00,,---,0.00,VWS V14.01,2013-08-31 05:47:00,
2013-08-30 22:52:00,78.9,67.9,29.99,SW,217,0.0,0.0,69,0.00,,---,0.00,VWS V14.01,2013-08-31 05:52:00,
2013-08-30 22:57:00,78.8,68.2,29.99,SW,217,0.0,0.0,70,0.00,,---,0.00,VWS V14.01,2013-08-31 05:57:00,
2013-08-30 23:02:00,78.7,67.7,29.99,SW,217,0.0,0.0,69,0.00,,---,0.00,VWS V14.01,2013-08-31 06:02:00,
2013-08-30 23:07:00,78.5,67.5,29.99,SW,217,0.0,0.0,69,0.00,,---,0.00,VWS V14.01,2013-08-31 06:07:00,
2013-08-30 23:12:00,78.4,67.8,29.99,SW,217,0.0,0.0,70,0.00,,---,0.00,VWS V14.01,2013-08-31 06:12:00,
2013-08-30 23:17:00,78.2,67.6,29.99,SW,217,0.0,0.0,70,0.00,,---,0.00,VWS V14.01,2013-08-31 06:17:00,
2013-08-30 23:22:00,78.0,67.4,29.99,SW,217,0.0,0.0,70,0.00,,---,0.00,VWS V14.01,2013-08-31 06:22:00,
2013-08-30 23:27:00,77.8,67.2,29.99,SW,217,0.0,0.0,70,0.00,,---,0.00,VWS V14.01,2013-08-31 06:27:00,
2013-08-30 23:32:00,77.7,67.1,29.99,SW,217,0.0,0.0,70,0.00,,---,0.00,VWS V14.01,2013-08-31 06:32:00,
2013-08-30 23:37:00,77.5,66.9,29.99,SW,217,0.0,0.0,70,0.00,,---,0.00,VWS V14.01,2013-08-31 06:37:00,
2013-08-30 23:41:00,77.4,67.3,29.99,SW,217,0.0,0.0,71,0.00,,---,0.00,VWS V14.01,2013-08-31 06:41:00,
2013-08-30 23:46:00,77.2,67.1,29.99,SW,217,0.0,0.0,71,0.00,,---,0.00,VWS V14.01,2013-08-31 06:46:00,
2013-08-30 23:51:00,77.1,67.0,29.99,SW,217,0.0,0.0,71,0.00,,---,0.00,VWS V14.01,2013-08-31 06:51:00,
2013-08-30 23:56:00,77.0,67.3,29.99,SW,217,0.0,0.0,72,0.00,,---,0.00,VWS V14.01,2013-08-31 06:56:00,